User: anonymous   Login
Location: French Creek State Gamelands
(40.1750°N, 75.7969°W)
Time: 19:23:06
(UTC-05:00)
Language:

ISS - Orbit

View from above orbital plane
View from above orbital plane
View from above satellite
View from above satellite

Ground track
Ground track

The orbit data is extracted from the following two-line orbital elements,

1 25544U 98067A   15029.56758670  .00011231  00000-0  17654-3 0  7960
2 25544 051.6483 056.2038 0005834 303.7241 193.7872 15.54136617926466
Epoch (UTC): 29 January 2015 13:37:19
Eccentricity: 0.0005834
inclination: 51.6483°
perigee height: 401 km
apogee height: 408 km
right ascension of ascending node: 56.2038°
argument of perigee: 303.7241°
revolutions per day: 15.54136617
mean anomaly at epoch: 193.7872°
orbit number at epoch: 92646

The dashed part of the orbit path shows where the satellite is in the earth's shadow,  

DLR